BAW8 RJTT-EGLL

Flight info

Callsign BAW8
Flight time N/A
Altitude 33000
Route INUBO Y808 PUTER/N0492F340 A590 PINTT/N0486F350 A590 PUGGY DCT BET DCT FYU J167 POTAT DCT 7130N13000W/N0494F370 7330N12000W 7430N11000W 75N100W 75N090W 75N080W/M084F370 DCT GELBO DCT 74N060W 71N040W/M084F390 68N030W 6430N02000W DCT ORTAV/N0481F390 DCT ODPEX DCT AKOMU DCT VAMEB DCT NUGRA
Aircraft A35K/H-SDE2E3GHIJ3J4J5LM1ORWXY/LB1D1

Departure

Time N/A
Airport Tokyo Haneda International Airport (RJTT)

Arrival

Time 2026-05-01 15:19
Airport London Heathrow Airport (EGLL)
Time Latitude Longitude Altitude Speed Heading
2026-05-01 13:38 60.31092 -11.32980 39072 ft 500 kts 145°
2026-05-01 13:38 60.28430 -11.28474 39068 ft 500 kts 145°
2026-05-01 13:39 60.23105 -11.19490 39073 ft 499 kts 145°
2026-05-01 13:39 60.17789 -11.10559 39072 ft 498 kts 145°
2026-05-01 13:40 60.12465 -11.01656 39078 ft 497 kts 145°
2026-05-01 13:40 60.07178 -10.92854 39075 ft 497 kts 145°
2026-05-01 13:41 60.01853 -10.84024 39080 ft 497 kts 145°
2026-05-01 13:41 59.96526 -10.75229 39080 ft 496 kts 145°
2026-05-01 13:42 59.91212 -10.66493 39084 ft 495 kts 145°
2026-05-01 13:42 59.85887 -10.57779 39081 ft 495 kts 145°
2026-05-01 13:43 59.80599 -10.49160 39089 ft 494 kts 145°
2026-05-01 13:43 59.75277 -10.40524 39063 ft 494 kts 145°
2026-05-01 13:44 59.69975 -10.31953 39078 ft 491 kts 145°
2026-05-01 13:44 59.64680 -10.23432 39100 ft 490 kts 145°
2026-05-01 13:45 59.59420 -10.14999 39099 ft 490 kts 145°
2026-05-01 13:45 59.54110 -10.06559 39100 ft 490 kts 146°
2026-05-01 13:46 59.48790 -9.98168 39083 ft 490 kts 146°
2026-05-01 13:46 59.43488 -9.89829 39097 ft 487 kts 146°
2026-05-01 13:47 59.38192 -9.81527 39098 ft 487 kts 146°
2026-05-01 13:47 59.32893 -9.73253 39098 ft 487 kts 146°
2026-05-01 13:48 59.27635 -9.65078 39096 ft 485 kts 146°
2026-05-01 13:48 59.22358 -9.56905 39088 ft 484 kts 145°
2026-05-01 13:49 59.17089 -9.48778 39097 ft 483 kts 145°
2026-05-01 13:49 59.11817 -9.40680 39100 ft 482 kts 146°
2026-05-01 13:50 59.06541 -9.32607 39100 ft 482 kts 146°
2026-05-01 13:50 59.01260 -9.24560 39099 ft 482 kts 146°
2026-05-01 13:51 58.95979 -9.16545 39096 ft 483 kts 146°
2026-05-01 13:51 58.90724 -9.08600 39102 ft 483 kts 146°
2026-05-01 13:52 58.85415 -9.00607 39098 ft 483 kts 146°
2026-05-01 13:52 58.80116 -8.92659 39100 ft 483 kts 146°
2026-05-01 13:53 58.74804 -8.84724 39098 ft 483 kts 146°
2026-05-01 13:53 58.66901 -8.72971 39082 ft 478 kts 146°
2026-05-01 13:54 58.61646 -8.65199 39083 ft 477 kts 146°
2026-05-01 13:54 58.56387 -8.57454 39081 ft 477 kts 146°
2026-05-01 13:55 58.51123 -8.49729 39078 ft 477 kts 146°
2026-05-01 13:55 58.45887 -8.42074 39080 ft 477 kts 146°
2026-05-01 13:56 58.40619 -8.34401 39084 ft 477 kts 146°
2026-05-01 13:56 58.35347 -8.26753 39082 ft 476 kts 147°
2026-05-01 13:57 58.30957 -8.20406 39080 ft 476 kts 147°
2026-05-01 13:57 58.24801 -8.11540 39077 ft 476 kts 147°
2026-05-01 13:58 58.19515 -8.03960 39072 ft 475 kts 147°
2026-05-01 13:58 58.14281 -7.96478 39074 ft 474 kts 147°
2026-05-01 13:59 58.09052 -7.89036 39075 ft 474 kts 147°
2026-05-01 13:59 58.03776 -7.81556 39076 ft 474 kts 147°
2026-05-01 14:00 57.98511 -7.74119 39076 ft 473 kts 147°
2026-05-01 14:00 57.93277 -7.66754 39076 ft 472 kts 147°
2026-05-01 14:01 57.88013 -7.59372 39078 ft 472 kts 147°
2026-05-01 14:01 57.82750 -7.52021 39076 ft 471 kts 147°
2026-05-01 14:02 57.77481 -7.44688 39072 ft 471 kts 147°
2026-05-01 14:02 57.72247 -7.37430 39072 ft 471 kts 147°
2026-05-01 14:03 57.66980 -7.30156 39071 ft 471 kts 147°
2026-05-01 14:03 57.61710 -7.22901 39068 ft 470 kts 147°
2026-05-01 14:04 57.56438 -7.15672 39075 ft 470 kts 147°
2026-05-01 14:04 57.52055 -7.09681 39076 ft 470 kts 147°
2026-05-01 14:05 57.45894 -7.01294 39074 ft 470 kts 147°
2026-05-01 14:05 57.40657 -6.94191 39076 ft 469 kts 147°
2026-05-01 14:06 57.35386 -6.87067 39075 ft 468 kts 147°
2026-05-01 14:06 57.30123 -6.79984 39121 ft 467 kts 147°
2026-05-01 14:07 57.24828 -6.72882 39068 ft 470 kts 147°
2026-05-01 14:08 57.16943 -6.62346 39075 ft 467 kts 147°
2026-05-01 14:08 57.11683 -6.55352 39075 ft 466 kts 148°
2026-05-01 14:09 57.06428 -6.48391 39073 ft 466 kts 148°
2026-05-01 14:09 57.01163 -6.41441 39070 ft 466 kts 148°
2026-05-01 14:10 56.95934 -6.34562 39073 ft 466 kts 148°
2026-05-01 14:10 56.90672 -6.27665 39074 ft 465 kts 148°
2026-05-01 14:11 56.85404 -6.20784 39072 ft 465 kts 148°
2026-05-01 14:11 56.77503 -6.10510 39072 ft 465 kts 148°
2026-05-01 14:12 56.72264 -6.03727 39072 ft 465 kts 148°
2026-05-01 14:12 56.66991 -5.96922 39077 ft 464 kts 148°
2026-05-01 14:13 56.62610 -5.91288 39077 ft 464 kts 148°
2026-05-01 14:13 56.56458 -5.83405 39077 ft 463 kts 148°
2026-05-01 14:14 56.51215 -5.76710 39075 ft 464 kts 148°
2026-05-01 14:14 56.45941 -5.69998 39083 ft 463 kts 148°
2026-05-01 14:15 56.40666 -5.63310 39096 ft 463 kts 148°
2026-05-01 14:15 56.38034 -5.59981 39206 ft 463 kts 148°
2026-05-01 14:15 56.35394 -5.56648 39204 ft 463 kts 148°
2026-05-01 14:16 56.30150 -5.50046 39188 ft 463 kts 148°
2026-05-01 14:16 56.24865 -5.43413 39102 ft 463 kts 148°
2026-05-01 14:17 56.19583 -5.36806 39085 ft 463 kts 148°
2026-05-01 14:17 56.14294 -5.30215 39083 ft 463 kts 148°
2026-05-01 14:18 56.09042 -5.23690 39083 ft 463 kts 148°
2026-05-01 14:18 56.04610 -5.18201 39087 ft 463 kts 148°
2026-05-01 14:19 55.98455 -5.10605 39093 ft 463 kts 148°
2026-05-01 14:19 55.93148 -5.04081 39090 ft 464 kts 148°
2026-05-01 14:20 55.85210 -4.94360 39095 ft 464 kts 148°
2026-05-01 14:21 55.79888 -4.87870 39095 ft 464 kts 148°
2026-05-01 14:21 55.74562 -4.81399 39096 ft 464 kts 149°
2026-05-01 14:22 55.66568 -4.71725 39099 ft 464 kts 149°
2026-05-01 14:22 55.61270 -4.65341 39136 ft 464 kts 149°
2026-05-01 14:23 55.55938 -4.58938 39121 ft 463 kts 149°
2026-05-01 14:23 55.50602 -4.52550 39210 ft 463 kts 149°
2026-05-01 14:24 55.45263 -4.46180 39208 ft 463 kts 149°
2026-05-01 14:24 55.39957 -4.39872 39182 ft 463 kts 149°
2026-05-01 14:25 55.34613 -4.33539 39165 ft 463 kts 149°
2026-05-01 14:25 55.29267 -4.27224 39146 ft 463 kts 149°
2026-05-01 14:26 55.21327 -4.17883 39126 ft 463 kts 149°
2026-05-01 14:27 55.15974 -4.11611 39128 ft 463 kts 149°
2026-05-01 14:27 55.10625 -4.05364 39130 ft 462 kts 149°
2026-05-01 14:28 55.02598 -3.96029 39132 ft 462 kts 149°
2026-05-01 14:28 54.97283 -3.89874 39138 ft 462 kts 149°
2026-05-01 14:29 54.91929 -3.83693 39134 ft 462 kts 149°
2026-05-01 14:30 54.81198 -3.71366 39140 ft 464 kts 149°
2026-05-01 14:31 54.73161 -3.62184 39137 ft 464 kts 149°
2026-05-01 14:31 54.67763 -3.56041 39139 ft 464 kts 149°
2026-05-01 14:32 54.62373 -3.49928 39139 ft 463 kts 149°
2026-05-01 14:32 54.57020 -3.43877 39143 ft 463 kts 149°
2026-05-01 14:33 54.51630 -3.37803 39140 ft 463 kts 149°
2026-05-01 14:33 54.46235 -3.31743 39139 ft 463 kts 149°
2026-05-01 14:34 54.40836 -3.25695 39134 ft 463 kts 149°
2026-05-01 14:34 54.35445 -3.19677 39131 ft 462 kts 149°
2026-05-01 14:35 54.30068 -3.13697 39142 ft 465 kts 149°
2026-05-01 14:35 54.24635 -3.07672 39141 ft 465 kts 149°
2026-05-01 14:36 54.19200 -3.01663 39140 ft 465 kts 149°
2026-05-01 14:36 54.13765 -2.95672 39138 ft 465 kts 149°
2026-05-01 14:37 54.08352 -2.89725 39164 ft 468 kts 149°
2026-05-01 14:37 54.02894 -2.83766 39147 ft 465 kts 151°
2026-05-01 14:38 53.97049 -2.79221 39149 ft 460 kts 163°
2026-05-01 14:38 53.90945 -2.75937 39150 ft 459 kts 165°
2026-05-01 14:39 53.84838 -2.72714 39149 ft 459 kts 165°
2026-05-01 14:39 53.78780 -2.69520 39139 ft 459 kts 165°
2026-05-01 14:40 53.72681 -2.66319 39141 ft 459 kts 165°
2026-05-01 14:40 53.66579 -2.63128 39132 ft 458 kts 163°
2026-05-01 14:41 53.60496 -2.59951 39140 ft 458 kts 163°
2026-05-01 14:41 53.54448 -2.56805 39147 ft 457 kts 163°
2026-05-01 14:42 53.48381 -2.53656 39141 ft 456 kts 163°
2026-05-01 14:42 53.42316 -2.50517 39133 ft 456 kts 163°
2026-05-01 14:43 53.36268 -2.47398 39135 ft 456 kts 163°
2026-05-01 14:43 53.30192 -2.44273 39117 ft 456 kts 163°
2026-05-01 14:44 53.24183 -2.41191 38821 ft 454 kts 163°
2026-05-01 14:44 53.18182 -2.38124 37623 ft 445 kts 163°
2026-05-01 14:44 53.15231 -2.36619 36983 ft 442 kts 163°
2026-05-01 14:45 53.12295 -2.35123 36320 ft 440 kts 163°
2026-05-01 14:45 53.07695 -2.32784 35336 ft 436 kts 163°
2026-05-01 14:45 53.04814 -2.31308 34830 ft 431 kts 162°
2026-05-01 14:46 53.02071 -2.29383 34331 ft 426 kts 151°
2026-05-01 14:46 52.97115 -2.24283 33250 ft 418 kts 148°
2026-05-01 14:46 52.94672 -2.21702 32679 ft 415 kts 148°
2026-05-01 14:47 52.92256 -2.19158 32137 ft 411 kts 148°
2026-05-01 14:47 52.89834 -2.16617 31615 ft 407 kts 148°
2026-05-01 14:47 52.87454 -2.14126 31078 ft 403 kts 148°
2026-05-01 14:48 52.82797 -2.09267 30063 ft 395 kts 149°
2026-05-01 14:48 52.80474 -2.06848 29457 ft 391 kts 148°
2026-05-01 14:48 52.75902 -2.02098 28283 ft 385 kts 148°
2026-05-01 14:49 52.71387 -1.97420 27037 ft 382 kts 148°
2026-05-01 14:49 52.66915 -1.92796 26009 ft 376 kts 148°
2026-05-01 14:50 52.63998 -1.89787 25327 ft 372 kts 148°
2026-05-01 14:50 52.58218 -1.83838 23994 ft 365 kts 148°
2026-05-01 14:51 52.56073 -1.81635 23464 ft 362 kts 148°
2026-05-01 14:51 52.51820 -1.77273 22266 ft 359 kts 148°
2026-05-01 14:52 52.47622 -1.72978 21189 ft 352 kts 148°
2026-05-01 14:52 52.45569 -1.70881 20629 ft 351 kts 148°
2026-05-01 14:52 52.41456 -1.66688 20137 ft 348 kts 148°
2026-05-01 14:53 52.39401 -1.64599 20127 ft 348 kts 148°
2026-05-01 14:53 52.37346 -1.62509 20129 ft 348 kts 149°
2026-05-01 14:53 52.35287 -1.60419 20128 ft 348 kts 149°
2026-05-01 14:53 52.33231 -1.58332 20126 ft 348 kts 149°
2026-05-01 14:54 52.31175 -1.56248 20127 ft 348 kts 149°
2026-05-01 14:54 52.29114 -1.54163 20128 ft 348 kts 149°
2026-05-01 14:54 52.27085 -1.52112 20134 ft 348 kts 149°
2026-05-01 14:54 52.25032 -1.50039 20132 ft 347 kts 148°
2026-05-01 14:55 52.22980 -1.47967 20136 ft 346 kts 148°
2026-05-01 14:55 52.21012 -1.45742 19791 ft 343 kts 142°
2026-05-01 14:55 52.19172 -1.43231 19079 ft 347 kts 140°
2026-05-01 14:55 52.17346 -1.40650 18486 ft 348 kts 140°
2026-05-01 14:56 52.15518 -1.38076 17901 ft 346 kts 140°
2026-05-01 14:56 52.13702 -1.35531 17370 ft 343 kts 140°
2026-05-01 14:56 52.11899 -1.33014 16835 ft 340 kts 140°
2026-05-01 14:56 52.10112 -1.30524 16321 ft 336 kts 140°
2026-05-01 14:57 52.08367 -1.28095 15839 ft 333 kts 140°
2026-05-01 14:57 52.04889 -1.23266 15159 ft 325 kts 140°
2026-05-01 14:57 52.03168 -1.20882 15126 ft 326 kts 140°
2026-05-01 14:58 52.01442 -1.18494 15123 ft 326 kts 140°
2026-05-01 14:58 51.99711 -1.16099 15123 ft 326 kts 140°
2026-05-01 14:58 51.97986 -1.13714 15124 ft 326 kts 140°
2026-05-01 14:58 51.96285 -1.11367 15118 ft 314 kts 140°
2026-05-01 14:59 51.94669 -1.09131 15116 ft 296 kts 140°
2026-05-01 14:59 51.93145 -1.07028 15115 ft 279 kts 140°
2026-05-01 14:59 51.91751 -1.05034 15113 ft 264 kts 135°
2026-05-01 14:59 51.90623 -1.02778 15120 ft 255 kts 126°
2026-05-01 15:00 51.88723 -0.97939 15124 ft 255 kts 123°
2026-05-01 15:00 51.87800 -0.95496 15117 ft 255 kts 123°
2026-05-01 15:00 51.86876 -0.93039 15098 ft 254 kts 123°
2026-05-01 15:01 51.85974 -0.90629 14830 ft 249 kts 123°
2026-05-01 15:01 51.85378 -0.89034 14513 ft 252 kts 123°
2026-05-01 15:01 51.84470 -0.86602 14124 ft 252 kts 123°
2026-05-01 15:01 51.83571 -0.84192 13742 ft 248 kts 123°
2026-05-01 15:02 51.82684 -0.81811 13121 ft 246 kts 123°
2026-05-01 15:02 51.82103 -0.80255 12698 ft 245 kts 123°
2026-05-01 15:02 51.80933 -0.77123 11860 ft 243 kts 123°
2026-05-01 15:02 51.80061 -0.74794 11266 ft 241 kts 123°
2026-05-01 15:03 51.78918 -0.71739 10498 ft 239 kts 123°
2026-05-01 15:03 51.78339 -0.70192 10110 ft 237 kts 123°
2026-05-01 15:03 51.77503 -0.67962 9523 ft 234 kts 123°
2026-05-01 15:03 51.76660 -0.65717 8894 ft 233 kts 123°
2026-05-01 15:04 51.75821 -0.63485 8366 ft 231 kts 123°
2026-05-01 15:04 51.74993 -0.61285 8139 ft 232 kts 123°
2026-05-01 15:04 51.74160 -0.59074 8124 ft 231 kts 123°
2026-05-01 15:04 51.73322 -0.56849 8127 ft 231 kts 123°
2026-05-01 15:05 51.72471 -0.54657 8127 ft 230 kts 125°
2026-05-01 15:05 51.71598 -0.52501 8128 ft 230 kts 126°
2026-05-01 15:05 51.70718 -0.50342 8133 ft 230 kts 126°
2026-05-01 15:05 51.69840 -0.48187 8131 ft 230 kts 126°
2026-05-01 15:06 51.68972 -0.46059 8128 ft 230 kts 126°
2026-05-01 15:06 51.68093 -0.43907 8128 ft 230 kts 126°
2026-05-01 15:06 51.67224 -0.41775 7829 ft 227 kts 126°
2026-05-01 15:06 51.66350 -0.39636 7416 ft 229 kts 126°
2026-05-01 15:07 51.65479 -0.37503 7170 ft 227 kts 126°
2026-05-01 15:07 51.64610 -0.35378 7118 ft 228 kts 126°
2026-05-01 15:07 51.63731 -0.33234 7139 ft 230 kts 126°
2026-05-01 15:07 51.62854 -0.31086 7118 ft 229 kts 126°
2026-05-01 15:08 51.61977 -0.28944 7137 ft 228 kts 126°
2026-05-01 15:08 51.61107 -0.26806 7120 ft 229 kts 126°
2026-05-01 15:08 51.60403 -0.24546 7110 ft 230 kts 114°
2026-05-01 15:08 51.59889 -0.22117 6818 ft 230 kts 111°
2026-05-01 15:09 51.59419 -0.19693 6254 ft 229 kts 111°
2026-05-01 15:09 51.58953 -0.17250 5684 ft 227 kts 111°
2026-05-01 15:09 51.58503 -0.14864 5330 ft 217 kts 111°
2026-05-01 15:09 51.58087 -0.12622 5094 ft 201 kts 111°
2026-05-01 15:10 51.57715 -0.10539 4849 ft 187 kts 110°
2026-05-01 15:10 51.56999 -0.06631 4082 ft 177 kts 110°
2026-05-01 15:10 51.56635 -0.04776 3974 ft 175 kts 110°
2026-05-01 15:11 51.56261 -0.02918 3970 ft 175 kts 110°
2026-05-01 15:11 51.55441 0.00741 3976 ft 173 kts 125°
2026-05-01 15:11 51.54514 0.01859 3993 ft 168 kts 164°
2026-05-01 15:12 51.53345 0.01857 3979 ft 176 kts 195°
2026-05-01 15:12 51.51652 -0.01125 3990 ft 190 kts 234°
2026-05-01 15:12 51.51015 -0.03003 3981 ft 194 kts 235°
2026-05-01 15:13 51.49079 -0.08763 3977 ft 196 kts 236°
2026-05-01 15:14 51.47974 -0.12743 3809 ft 196 kts 255°
2026-05-01 15:14 51.47868 -0.14895 3595 ft 194 kts 264°
2026-05-01 15:14 51.47842 -0.19169 3025 ft 190 kts 266°
2026-05-01 15:15 51.47832 -0.23328 2507 ft 182 kts 265°
2026-05-01 15:15 51.47816 -0.27371 2043 ft 177 kts 268°
2026-05-01 15:16 51.47809 -0.31053 1581 ft 171 kts 263°
2026-05-01 15:16 51.47793 -0.34796 1144 ft 170 kts 264°
2026-05-01 15:17 51.47782 -0.38420 729 ft 157 kts 266°
2026-05-01 15:18 51.47767 -0.43334 132 ft 142 kts 261°
2026-05-01 15:18 51.47752 -0.44876 95 ft 123 kts 271°
2026-05-01 15:19 51.47752 -0.47274 93 ft 11 kts 258°
2026-05-01 15:19 51.47628 -0.47386 95 ft 15 kts 174°
2026-05-01 15:19 51.47528 -0.47370 94 ft 15 kts 192°
2026-05-01 15:20 51.47491 -0.47679 92 ft 18 kts 269°
2026-05-01 15:20 51.47489 -0.47892 95 ft 21 kts 269°
2026-05-01 15:20 51.47489 -0.48000 95 ft 22 kts 270°
2026-05-01 15:21 51.47490 -0.48156 93 ft 23 kts 270°
2026-05-01 15:21 51.47455 -0.48355 96 ft 15 kts 206°
2026-05-01 15:21 51.47387 -0.48328 94 ft 8 kts 116°
2026-05-01 15:21 51.47382 -0.48256 95 ft 0 kts 91°
2026-05-01 15:22 51.47381 -0.48240 95 ft 0 kts 91°